Flag for Belgium Weather past 2 weeks in Charleroi, Belgium

Now
66 °F

Passing clouds.


Feels Like: 66 °F
Forecast: 64 / 74 °F
Wind: 5 mph from Southeast

Location: Charleroi / Gosselies

Current Time: Sep 18, 2014 at 1:51:59 AM

Latest Report: Sep 18, 2014 at 12:50 AM


Visibility: N/A

Pressure: 29.83 "Hg

Humidity: 78%

Dew point: 59 °F

Location of CharleroiLocation

Historic Weather in Charleroi — Graph

°F

Charleroi temperature yesterday

Maximum temperature yesterday: 77 °F (at 2:20 PM)
Minimum temperature yesterday: 55 °F (at 6:20 AM)
Average temperature yesterday: 66 °F

Past Weeks' High & Low Weather Summary

 TemperatureHumidityPressure
High77 °F (Sep 17, 2:20 PM)100% (Sep 3, 7:20 AM)30.27 "Hg (Sep 3, 7:20 AM)
Low48 °F (Sep 12, 4:20 AM)44% (Sep 17, 2:50 PM)29.83 "Hg (Sep 17, 3:50 PM)
Average61 °F79%30.07 "Hg
* Reported Sep 3 12:20 AM — Sep 18 12:50 AM, Charleroi, Weather by CustomWeather, © 2014

Note: Actual official high and low records may vary slightly from our data, if they occured in-between our weather recording intervals... More about our weather records

Advertising

Charleroi weather history for previous 24 hours

 ConditionsComfort  
Time TempWeatherWind HumidityBarometerVisibility
12:50 AM
Sep 18
66 °FPassing clouds.5 mph78%29.83 "HgN/A
12:20 AM66 °FPassing clouds.6 mph78%29.83 "HgN/A
11:50 PM
Sep 17
64 °FPassing clouds.6 mph83%29.83 "HgN/A
11:20 PM64 °FPassing clouds.6 mph83%29.83 "HgN/A
10:50 PM64 °FPassing clouds.6 mph83%29.83 "HgN/A
10:20 PM66 °FPassing clouds.5 mph78%29.83 "HgN/A
9:50 PM66 °FPassing clouds.6 mph78%29.86 "HgN/A
9:20 PM68 °FPassing clouds.7 mph69%29.86 "HgN/A
8:50 PM70 °FPassing clouds.8 mph69%29.83 "HgN/A
8:20 PM72 °FPassing clouds.8 mph65%29.83 "HgN/A
7:50 PM72 °FPassing clouds.6 mph65%29.83 "HgN/A
7:20 PM73 °FPassing clouds.6 mph61%29.83 "HgN/A
6:50 PM73 °FPassing clouds.5 mph61%29.83 "HgN/A
6:20 PM75 °FPassing clouds.7 mph54%29.83 "HgN/A
5:50 PM75 °FPassing clouds.7 mph54%29.83 "HgN/A
5:20 PM77 °FPassing clouds.6 mph54%29.83 "HgN/A
4:50 PM77 °FPassing clouds.8 mph51%29.83 "HgN/A
4:20 PM77 °FPassing clouds.9 mph47%29.83 "HgN/A
3:50 PM77 °FPassing clouds.9 mph47%29.83 "HgN/A
3:20 PM77 °FPassing clouds.8 mph47%29.86 "HgN/A
2:50 PM77 °FPassing clouds.9 mph44%29.86 "HgN/A
2:20 PM77 °FPassing clouds.9 mph47%29.86 "HgN/A
1:50 PM75 °FPassing clouds.10 mph50%29.86 "HgN/A
1:20 PM75 °FPassing clouds.9 mph50%29.86 "HgN/A
12:50 PM75 °FPassing clouds.10 mph54%29.89 "HgN/A
12:20 PM73 °FPassing clouds.10 mph53%29.89 "HgN/A
11:50 AM73 °FSunny.8 mph61%29.89 "Hg10 mi
11:20 AM70 °FPassing clouds.6 mph64%29.89 "HgN/A
10:50 AM68 °FPassing clouds.6 mph73%29.89 "HgN/A
10:20 AM66 °FPassing clouds.7 mph78%29.89 "HgN/A
9:50 AM64 °FClear.5 mph83%29.89 "Hg6 mi
9:20 AM63 °FClear.5 mph88%29.89 "Hg5 mi
8:50 AM61 °FClear.2 mph88%29.89 "Hg4 mi
8:20 AM59 °FPassing clouds.3 mph88%29.89 "Hg4 mi
7:50 AM55 °FPassing clouds.3 mph94%29.89 "Hg4 mi
7:20 AM57 °FPassing clouds.2 mph94%29.89 "Hg4 mi
6:50 AM55 °FPassing clouds.3 mph94%29.89 "Hg4 mi
6:20 AM55 °FClear.3 mph94%29.89 "Hg4 mi
5:50 AM57 °FClear.1 mph94%29.89 "Hg4 mi
5:20 AM57 °FClear.1 mph94%29.92 "Hg4 mi
4:50 AM57 °FClear.1 mph94%29.92 "Hg4 mi
4:20 AM57 °FClear.2 mph94%29.92 "Hg4 mi
3:50 AM57 °FClear.1 mph94%29.92 "Hg4 mi
3:20 AM57 °FClear.1 mph94%29.92 "Hg4 mi
2:50 AM59 °FPassing clouds.1 mph88%29.92 "Hg6 mi
2:20 AM59 °FPassing clouds.3 mph82%29.92 "Hg6 mi
1:50 AM57 °FClear.3 mph88%29.92 "Hg6 mi
1:20 AM59 °FClear.2 mph82%29.92 "Hg6 mi
Weather by CustomWeather, © 2014

See weather overviewHow to use our weather pages